Location: Kelshall
(52.0000°N, 0.0500°W)
Time: 05:24:45
(UTC+00:00)

USA 234 - Pass Details

Date: 18 September 2020
Orbit: 1102 x 1106 km, 123.0° (Epoch: 16 October)

Event Time Altitude Azimuth Distance (km) Brightness Sun altitude
Rises 22:00:34 0° 64° (ENE) 3,926 6.1 -31.5°
Reaches altitude 10° 22:03:03 10° 63° (ENE) 2,967 5.4 -31.7°
Enters shadow 22:03:22 12° 63° (ENE) 2,849 5.4 -31.7°
Exits shadow 22:06:55 39° 56° (ENE) 1,602 4.0 -32.0°
Maximum altitude 22:09:35 77° 339° (NNW) 1,135 3.3 -32.2°
Drops below altitude 10° 22:16:08 10° 255° (WSW) 2,963 5.6 -32.7°
Sets 22:18:36 0° 254° (WSW) 3,920 6.3 -32.9°
